{"data":{"norad_id":65480,"epoch":"2026-05-24T16:32:15.754272Z","epoch_age_seconds":91983,"freshness":"FRESH","line1":"1 65480U 25195Y   26144.68907123  .00021490  00000+0  64538-3 0  9992","line2":"2 65480  53.1589 264.8530 0001026  73.0848 287.0267 15.34397510 41615","mean_motion":15.3439751,"eccentricity":0.0001026,"inclination_deg":53.1589,"raan_deg":264.853,"arg_perigee_deg":73.0848,"mean_anomaly_deg":287.0267,"bstar":0.00064538,"rev_number":4161,"period_min":93.847910376236,"perigee_km":462.00877005389,"apogee_km":463.41251198983,"semimajor_km":6840.8476410219,"source":"CELESTRAK","updated_at":"2026-05-25T13:38:20.816684Z"}}